Regional Weather Roundup
Issued by NWS

Home | Current Version | Previous Version | Graphics & Text | Print | Product List | Glossary On
Versions: 1 2 3 4 5 6 7 8 9 10 11 12 13 14 15 16 17 18 19 20 21 22 23 24 25 26 27 28 29 30 31 32 33 34 35 36 37 38 39 40 41 42 43 44 45 46 47 48 49 50
000
ASUS43 KMPX 262010
RWRMN
WEATHER ROUNDUP FOR MINNESOTA
NATIONAL WEATHER SERVICE TWIN CITIES/CHANHASSEN MN
300 PM CDT SUN APR 26 2015


NOTE: "FAIR" INDICATES FEW OR NO CLOUDS BELOW 12,000 FEET WITH NO
SIGNIFICANT WEATHER AND/OR OBSTRUCTIONS TO VISIBILITY. N/A MEANS
CURRENT SKY AND/OR WEATHER CONDITIONS ARE NOT AVAILABLE.

MNZ060>063-068>070-262100-
   Twin Cities Metro

CITY           SKY/WX    TMP DP  RH WIND       PRES   REMARKS
TWIN CITIES    SUNNY     59  21  23 CALM      30.10F
ST PAUL        SUNNY     61  21  21 N6        30.11F
CRYSTAL        SUNNY     61  20  20 VRB3      30.09F
BLAINE         SUNNY     61  21  21 SE7       30.10F
LAKEVILLE      SUNNY     57  25  28 N3        30.09F
EDEN PRAIRIE   SUNNY     60  21  22 VRB6      30.09S
SOUTH ST PAUL  SUNNY     60  21  21 NE5       30.09F
LAKE ELMO      FAIR      59  25  27 CALM      30.10F
$$
MNZ001>005-007-008-013>017-022>024-027-028-262100-
   Northwest Minnesota

CITY           SKY/WX    TMP DP  RH WIND       PRES   REMARKS
BEMIDJI        SUNNY     60  23  23 SE8       30.14F
HALLOCK        MOSUNNY   66  19  16 CALM      30.12S
ROSEAU         MOSUNNY   64  27  24 E3        30.14S
WARROAD        MOSUNNY   54  28  37 E13       30.16S
THIEF RVR FALL SUNNY     63  25  23 NW6       30.14S
CROOKSTON      SUNNY     64  27  24 CALM      30.13F
FOSSTON        SUNNY     66  30  26 E3        30.14S
DETROIT LAKES  SUNNY     61  23  23 SE3       30.13F
MOORHEAD       SUNNY     64  25  22 W5        30.12F
PARK RAPIDS    SUNNY     62  17  17 VRB6      30.13S
MAHNOMEN       FAIR      64  24  22 CALM      30.12S
$$
MNZ006-009>011-018-025>026-262100-
   North Central Minnesota

CITY           SKY/WX    TMP DP  RH WIND       PRES   REMARKS
BAUDETTE       SUNNY     62  21  20 CALM      30.15F
FLAG ISLAND    SUNNY     50  28  43 S6        30.16S
INTL FALLS     SUNNY     57   6  13 VRB3      30.17F
WASKISH        SUNNY     57  30  35 W3        30.15F
BIG FORK       SUNNY     63  16  16 CALM      30.14F
LONGVILLE      SUNNY     61  12  15 N6        30.13F
GRAND RAPIDS   SUNNY     57  16  19 E7        30.14F
CRANE LAKE     SUNNY     55  18  22 NW7       30.18S
ORR            SUNNY     59   7  12 NW6       30.13S
COOK           SUNNY     57  18  21 NE5       30.15S
WALKER         FAIR      57  16  20 E6        30.15S
$$
MNZ012-019>021-037-262100-
   Northeast Minnesota

CITY           SKY/WX    TMP DP  RH WIND       PRES   REMARKS
DULUTH         SUNNY     53  22  29 SE7       30.15F
ELY            SUNNY     55  12  18 N5        30.14S
HIBBING        SUNNY     61  10  13 NE9G18    30.13F
EVELETH        SUNNY     57  12  17 CALM      30.15S
DULUTH HARBOR  SUNNY     41  32  70 N3        30.19F
TWO HARBORS    SUNNY     54  30  40 SE8       30.15S
SILVER BAY     SUNNY     48  25  40 SE8       30.15F
GRAND MARAIS     N/A     41  34  76 SW8       30.18F
G MARAIS ARPRT SUNNY     48  25  40 S6        30.15F
$$
MNZ029>031-032-039>041-046>048-054>057-064-262100-
   West Central Minnesota

CITY           SKY/WX    TMP DP  RH WIND       PRES   REMARKS
FERGUS FALLS   SUNNY     63  18  17 E12       30.12F
WHEATON        SUNNY     63  30  29 E9        30.12F
MORRIS         SUNNY     64  25  22 NE10      30.10F
ALEXANDRIA     SUNNY     59  20  22 E7        30.13F
ELBOW LAKE     FAIR      60  24  26 E9G16     30.12S
WADENA         SUNNY     61  25  25 SE12      30.12F
GLENWOOD       SUNNY     61  19  20 NE7       30.12F
APPLETON       SUNNY     64  25  22 NE3       30.10S
BENSON         SUNNY     63  12  14 E8        30.11S
ORTONVILLE     SUNNY     63  25  23 E8        30.10F
MADISON        SUNNY     64  25  22 E6        30.09F
WILLMAR        FAIR      61  27  27 E10       30.12S
$$
MNZ033>034-036-042>043-049>051-058-059-262100-
   Central Minnesota

CITY           SKY/WX    TMP DP  RH WIND       PRES   REMARKS
ST CLOUD       SUNNY     60  19  20 N10       30.12S
SAUK CENTRE    FAIR      58  20  22 NE6       30.12S
PAYNESVILLE    SUNNY     57  18  22 NE8       30.11F
AITKIN         SUNNY     61  -2   8 CALM      30.12S
PINE RIVER     SUNNY     59  25  27 CALM      30.16S
BRAINERD       SUNNY     59  14  17 NE7G17    30.14S
STAPLES        SUNNY     59  10  14 S5        30.13F
LONG PRAIRIE   FAIR      59  16  18 E12       30.13F
LITTLE FALLS   SUNNY     57  12  17 N3        30.13S
LITCHFIELD     SUNNY     61  21  21 NE8       30.10F
BUFFALO        SUNNY     59  17  18 N7        30.11F
MAPLE LAKE     SUNNY     61  23  23 E6        30.11F
$$
MNZ037-044-045-052-053-262100-
   East Central Minnesota

CITY           SKY/WX    TMP DP  RH WIND       PRES   REMARKS
PRINCETON      SUNNY     61  21  21 E6        30.12S
MORA           SUNNY     57  19  23 E3        30.14S
CAMBRIDGE      SUNNY     61  36  39 N3        30.10S
RUSH CITY      SUNNY     60  22  22 N12       30.11S
MOOSE LAKE     SUNNY     57  21  24 NE9       30.13R
HINCKLEY       FAIR      61  23  23 NE7       30.11F
CLOQUET        SUNNY     54  14  20 E8        30.15S
MCGREGOR       SUNNY     61  19  20 N6        30.14S
$$
MNZ071>073-080-081-089-090-097-098-262100-
   Southwest Minnesota

CITY           SKY/WX    TMP DP  RH WIND       PRES   REMARKS
MONTEVIDEO     SUNNY     66  27  22 E5        30.11S
GRANITE FALLS  SUNNY     64  27  24 N10G16    30.10F
CANBY          SUNNY     63  29  28 E10       30.10F
MARSHALL       SUNNY     63  28  27 NE12      30.07F
REDWOOD FALLS  SUNNY     65  21  18 NE12      30.08S
OLIVIA         SUNNY     59  21  23 N7        30.08F
PIPESTONE      SUNNY     63  28  27 N5        30.06F
WINDOM         SUNNY     64  27  24 NE9       30.07S
WORTHINGTON    SUNNY     63  30  29 E10       30.06F
JACKSON        SUNNY     63  27  25 E7G20     30.07S
TRACY          SUNNY     65  29  26 N10       30.07F
SLAYTON        SUNNY     62  29  29 N9        30.07F
$$
MNZ065>067-074>077-082>085-091>093-262100-
   South Central Minnesota

CITY           SKY/WX    TMP DP  RH WIND       PRES   REMARKS
MANKATO        SUNNY     61  25  25 NE5       30.08F
NEW ULM        SUNNY     63  25  23 NE5       30.07F
FAIRMONT       SUNNY     64  30  27 NE8       30.06S
GLENCOE        SUNNY     62  25  24 N7        30.09S
FARIBAULT      SUNNY     61  23  23 CALM      30.09S
OWATONNA       SUNNY     59  23  25 E5        30.08F
WASECA         SUNNY     59  28  31 E5        30.10S
ALBERT LEA     SUNNY     57  27  30 CALM      30.07F
$$
MNZ078>079-086>088-094>096-262100-
   Southeast Minnesota

CITY           SKY/WX    TMP DP  RH WIND       PRES   REMARKS
ROCHESTER      SUNNY     57  26  30 N10       30.09F
RED WING       SUNNY     61  19  20 NW6       30.08F
STANTON        SUNNY     61  22  22 NE10      30.08F
DODGE CENTER   SUNNY     57  27  30 NE7       30.09S
WINONA         SUNNY     59  28  31 NW5       30.07F
AUSTIN         SUNNY     57  28  33 NE9       30.08S
PRESTON        SUNNY     56  22  26 NE6G16    30.07F
$$
ABBREVIATIONS USED IN REMARKS
   TC - TEMPERATURES IN CELSIUS
  WCI - WIND CHILL INDEX
   HX - HEAT INDEX
  VSB - VISIBILITY
$$



USA.gov is the U.S. government's official web portal to all federal, state and local government web resources and services.